Stations météo

Publicité
Biscarosse, France (7503): Température de l'air & dewpoint: 17.02.2017 01:00:00 - 23.02.2017 01:00:00 (CET)Biscarosse, France (7503): Température de l'air 5cm: 17.02.2017 01:00:00 - 23.02.2017 01:00:00 (CET)Biscarosse, France (7503): Température de l'air -20cm & Température de l'air -100cm: 17.02.2017 01:00:00 - 23.02.2017 01:00:00 (CET)Biscarosse, France (7503): Vitesse du vent & gusts: 17.02.2017 01:00:00 - 23.02.2017 01:00:00 (CET)Biscarosse, France (7503): Direction du vent: 17.02.2017 01:00:00 - 23.02.2017 01:00:00 (CET)Biscarosse, France (7503): reduced air pressure: 17.02.2017 01:00:00 - 23.02.2017 01:00:00 (CET)Biscarosse, France (7503): visibility: 17.02.2017 01:00:00 - 23.02.2017 01:00:00 (CET)Biscarosse, France (7503): Ensoleillement: 17.02.2017 01:00:00 - 23.02.2017 01:00:00 (CET)Biscarosse, France (7503): Quantités de précipitations: 17.02.2017 01:00:00 - 23.02.2017 01:00:00 (CET)
Date & Time tt [°C] td [°C] tt 5cm [°C] tt -20cm [°C] tt -100cm [°C] ff [km/h] ff [knt] fx [km/h] fx [knt] dd ppp [hPa] vv [km] sd [min] rr [mm]
23.02.2017 01:00:00 8,1 6,9 6,5 12,0 11,6 3 1 11 6 NE 1018,2 19 0 0,0
23.02.2017 00:00:00 8,0 6,8 6,9 12,2 11,6 8 4 13 7 E 1018,5 20 0 0,0
22.02.2017 23:00:00 8,6 6,9 7,6 12,5 11,6 9 5 20 11 E 1019,1 20 0 0,0
22.02.2017 22:00:00 9,0 7,3 8,0 12,7 11,6 9 5 16 9 E 1019,6 20 0 0,0
22.02.2017 21:00:00 9,5 7,6 8,8 12,9 11,6 8 5 15 8 E 1020,0 20 0 0,0
22.02.2017 20:00:00 10,1 7,9 9,1 13,0 11,6 6 3 10 6 ENE 1020,4 20 0 0,0
22.02.2017 19:00:00 10,9 8,1 10,2 13,0 11,5 8 4 19 10 ENE 1020,4 20 11 0,0
22.02.2017 18:00:00 12,4 8,3 12,3 13,0 11,6 10 5 18 10 NE 1020,6 20 52 0,0
22.02.2017 17:00:00 13,9 8,7 15,3 12,8 11,5 12 6 19 10 NE 1020,8 20 37 0,0
22.02.2017 16:00:00 12,8 8,7 14,3 12,6 11,5 4 2 13 7 ESE 1021,5 20 0 0,0
22.02.2017 15:00:00 12,1 8,6 13,6 12,5 11,5 4 2 13 7 ENE 1022,3 18 0 0,0
22.02.2017 14:00:00 11,8 8,8 12,7 12,4 11,5 4 2 8 5 E 1023,0 18 0 0,0
22.02.2017 13:00:00 11,5 8,7 12,9 12,2 11,5 3 2 9 5 ESE 1024,1 18 0 0,0
22.02.2017 12:00:00 11,1 8,3 12,3 12,2 11,5 3 1 9 5 SSE 1024,4 20 0 0,0
22.02.2017 11:00:00 11,0 9,7 11,4 12,1 11,5 4 2 10 6 E 1024,5 12 0 0,0
22.02.2017 10:00:00 10,6 9,7 10,4 12,1 11,5 6 3 10 5 ENE 1024,5 20 0 0,0
22.02.2017 09:00:00 10,2 9,4 9,8 12,2 11,5 3 1 6 3 E 1024,5 7 0 0,2
22.02.2017 08:00:00 9,9 9,1 9,8 12,3 11,5 3 2 5 3 E 1024,2 7 0 0,0
22.02.2017 07:00:00 9,9 9,1 9,8 12,4 11,4 5 3 8 4 SE 1024,1 10 0 0,0
22.02.2017 06:00:00 10,1 9,2 10,0 12,5 11,5 3 2 6 3 ESE 1024,2 20 0 0,0
22.02.2017 05:00:00 10,5 9,4 10,3 12,5 11,4 4 2 6 3 SE 1024,4 18 0 0,0
22.02.2017 04:00:00 10,6 9,7 10,4 12,6 11,4 2 1 7 4 E 1024,8 20 0 0,0
22.02.2017 03:00:00 10,8 9,9 10,5 12,7 11,4 4 2 13 7 NNE 1025,3 11 0 0,0
22.02.2017 02:00:00 10,9 9,8 10,5 12,8 11,4 6 4 15 8 N 1025,5 2,1 0 0,0
22.02.2017 01:00:00 11,0 9,6 10,8 12,9 11,4 7 4 10 6 N 1025,7 5 0 0,0
22.02.2017 00:00:00 11,1 9,7 11,0 13,0 11,4 3 2 9 5 NNE 1026,0 20 0 0,0
21.02.2017 23:00:00 11,3 10,0 11,0 13,0 11,4 4 2 6 3 N 1025,9 4,6 0 0,0
21.02.2017 22:00:00 11,5 10,1 11,1 13,2 11,4 4 2 8 4 NNW 1025,9 4,0 0 0,0
21.02.2017 21:00:00 11,7 10,1 11,3 13,3 11,4 7 4 10 5 NW 1025,7 5 0 0,0
21.02.2017 20:00:00 11,6 9,7 11,3 13,3 11,4 0 0 11 6 N 1025,9 11 0 0,0
21.02.2017 19:00:00 11,7 9,6 11,6 13,2 11,4 10 6 13 7 SW 1025,8 14 0 0,0
21.02.2017 18:00:00 12,0 9,6 12,2 13,0 11,4 9 5 13 7 SW 1026,0 13 0 0,0
21.02.2017 17:00:00 12,6 9,2 13,7 12,8 11,4 10 5 13 7 SW 1025,9 20 0 0,0
21.02.2017 16:00:00 12,9 9,9 14,9 12,4 11,4 11 6 18 10 SSW 1026,1 20 0 0,0
21.02.2017 15:00:00 13,2 9,4 15,6 12,0 11,4 14 8 19 10 SSW 1026,5 20 1 0,0
21.02.2017 14:00:00 13,4 9,8 15,9 11,6 11,4 15 8 20 11 SSW 1027,2 17 16 0,0
21.02.2017 13:00:00 13,0 9,6 14,1 11,3 11,4 13 7 17 9 SSW 1027,9 12 7 0,0
21.02.2017 12:00:00 11,9 9,6 12,6 11,2 11,4 11 6 16 9 S 1028,4 9 0 0,0
21.02.2017 11:00:00 11,1 9,7 10,7 11,1 11,4 9 5 14 7 SSW 1028,4 9 0 0,0
21.02.2017 10:00:00 9,6 8,7 9,2 11,1 11,4 6 3 12 7 SSE 1028,2 11 0 0,0
21.02.2017 09:00:00 8,8 8,0 8,6 11,1 11,3 7 4 11 6 SSE 1028,0 10 0 0,0
21.02.2017 08:00:00 8,6 7,8 8,3 11,3 11,3 6 4 10 5 SSE 1027,7 12 0 0,0
21.02.2017 07:00:00 8,6 7,8 8,4 11,4 11,3 7 4 11 6 SSE 1027,3 7 0 0,0
21.02.2017 06:00:00 8,7 7,9 7,2 11,5 11,3 7 4 10 6 SSE 1027,4 9 0 0,0
21.02.2017 05:00:00 8,2 7,3 7,1 11,8 11,3 9 5 12 7 SSE 1027,5 12 0 0,0
21.02.2017 04:00:00 8,1 7,2 6,8 11,9 11,3 6 3 13 7 SSE 1027,8 20 0 0,0
21.02.2017 03:00:00 8,3 7,4 6,3 12,2 11,3 7 4 10 5 SSE 1028,2 17 0 0,2
21.02.2017 02:00:00 8,0 7,1 6,3 12,4 11,2 6 3 9 5 SSE 1028,5 14 0 0,0
21.02.2017 01:00:00 8,0 6,9 6,0 12,7 11,2 6 3 7 4 SSE 1028,7 14 0 0,0
21.02.2017 00:00:00 8,0 6,8 6,1 13,0 11,2 6 3 8 5 SSE 1028,9 14 0 0,0
20.02.2017 23:00:00 8,6 7,4 6,5 13,3 11,2 4 2 6 4 SE 1029,1 17 0 0,0
20.02.2017 22:00:00 9,0 7,6 7,2 13,6 11,2 4 2 5 3 SE 1029,0 15 0 0,0
20.02.2017 21:00:00 8,8 7,1 7,5 13,8 11,2 4 2 5 3 SE 1028,9 9 0 0,0
20.02.2017 20:00:00 9,6 6,9 7,8 13,9 11,2 0 0 9 5 N 1028,6 7 0 0,0
20.02.2017 19:00:00 10,7 6,8 9,1 14,0 11,2 9 5 10 6 WSW 1028,3 13 3 0,0
20.02.2017 18:00:00 12,0 6,5 11,6 13,8 11,2 9 5 14 7 W 1028,2 20 53 0,0
20.02.2017 17:00:00 13,9 6,0 15,2 13,4 11,2 6 3 11 6 W 1028,1 20 60 0,0
20.02.2017 16:00:00 14,2 5,8 20,7 12,8 11,1 9 5 14 8 WSW 1028,3 20 60 0,0
20.02.2017 15:00:00 15,1 6,9 21,9 12,3 11,1 10 5 12 6 WSW 1028,4 20 60 0,0
20.02.2017 14:00:00 15,4 5,3 21,6 11,8 11,1 5 3 9 5 SW 1028,9 20 60 0,0
20.02.2017 13:00:00 14,0 7,3 17,2 11,5 11,1 6 3 9 5 SW 1029,5 20 21 0,0
20.02.2017 12:00:00 13,1 8,0 13,5 11,3 11,1 8 4 10 5 SSW 1029,7 12 4 0,0
20.02.2017 11:00:00 11,4 8,4 11,5 11,3 11,1 0 0 5 3 N 1029,6 15 0 0,0
20.02.2017 10:00:00 10,4 8,3 10,3 11,3 11,1 3 1 6 3 ESE 1029,4 12 0 0,0
20.02.2017 09:00:00 9,7 8,1 9,2 11,4 11,1 4 2 - - E 1029,4 12 0 0,0
20.02.2017 08:00:00 9,6 8,0 9,2 11,5 11,1 4 2 6 3 ESE 1028,7 12 0 0,0
20.02.2017 07:00:00 9,9 8,2 9,5 11,5 11,1 3 2 6 3 E 1028,6 15 0 0,0
20.02.2017 06:00:00 10,0 8,1 9,6 11,6 11,1 3 2 5 3 ESE 1028,5 15 0 0,0
20.02.2017 05:00:00 10,0 8,3 9,7 11,7 11,1 4 2 5 3 SE 1028,3 12 0 0,0
20.02.2017 04:00:00 10,2 8,5 9,8 11,8 11,1 5 3 7 4 SSE 1028,6 10 0 0,0
20.02.2017 03:00:00 10,5 8,3 10,0 11,9 11,1 0 0 7 4 N 1029,0 9 0 0,0
20.02.2017 02:00:00 11,2 8,6 10,8 11,9 11,1 7 4 12 7 NW 1029,2 6 0 0,0
20.02.2017 01:00:00 11,1 8,1 10,7 12,0 11,1 10 5 12 7 W 1029,3 7 0 0,0
20.02.2017 00:00:00 11,1 7,6 10,7 12,2 11,1 8 5 19 10 WNW 1029,2 6 0 0,0
19.02.2017 23:00:00 11,0 7,9 10,8 12,2 11,1 16 8 18 10 NW 1029,6 8 0 0,0
19.02.2017 22:00:00 11,0 8,9 10,6 12,3 11,1 10 6 15 8 NW 1029,3 6 0 0,0
19.02.2017 21:00:00 11,0 8,7 9,8 12,4 11,1 13 7 18 10 NW 1028,9 7 0 0,0
19.02.2017 20:00:00 11,2 8,6 10,9 12,5 11,1 17 9 23 12 WNW 1028,5 7 0 0,0
19.02.2017 19:00:00 11,1 9,2 10,1 12,5 11,1 15 8 17 9 WNW 1028,4 4,4 7 0,0
19.02.2017 18:00:00 11,1 8,8 11,0 12,3 11,1 13 7 15 8 NW 1028,2 4,8 9 0,0
19.02.2017 17:00:00 12,5 9,5 14,3 11,9 11,1 6 3 9 5 SSW 1028,0 4,7 60 0,0
19.02.2017 16:00:00 12,4 9,8 15,4 11,5 11,1 6 4 10 6 SSW 1028,1 6 41 0,0
19.02.2017 15:00:00 12,2 9,8 15,7 11,0 11,1 7 4 10 6 SW 1028,4 3,4 21 0,0
19.02.2017 14:00:00 11,7 9,8 14,1 10,6 11,1 8 5 12 6 SW 1028,5 3,5 3 0,0
19.02.2017 13:00:00 11,1 9,0 14,2 10,1 11,1 7 4 12 7 WSW 1029,1 2,7 14 0,0
19.02.2017 12:00:00 11,0 8,9 13,4 9,9 11,1 10 5 13 7 SW 1029,1 6 35 0,0
19.02.2017 11:00:00 10,4 9,9 9,9 9,8 11,1 8 5 11 6 SW 1028,9 4,5 15 0,0
19.02.2017 10:00:00 7,7 7,3 5,9 9,9 11,1 4 2 9 5 SSE 1028,1 0,2 49 0,0
19.02.2017 09:00:00 5,5 4,9 3,0 10,1 11,1 7 4 9 5 SE 1027,6 0,2 11 0,0
19.02.2017 08:00:00 4,7 3,7 2,8 10,3 11,0 7 4 8 5 SE 1026,8 3,9 0 0,0
19.02.2017 07:00:00 5,5 4,1 3,3 10,6 11,1 3 2 5 3 ESE 1026,0 4,3 0 0,0
19.02.2017 06:00:00 6,7 5,5 3,7 10,8 11,0 3 2 6 3 ESE 1025,6 7 0 0,2
19.02.2017 05:00:00 6,4 5,2 4,1 11,1 11,0 5 3 6 4 SE 1025,3 4,5 0 0,0
19.02.2017 04:00:00 6,5 4,7 3,9 11,3 11,0 0 0 4 2 N 1024,9 7 0 0,0
19.02.2017 03:00:00 7,5 5,3 5,6 11,6 11,0 0 0 10 5 N 1024,3 19 0 0,0
19.02.2017 02:00:00 8,3 5,8 5,4 11,9 11,0 11 6 15 8 ENE 1023,9 7 0 0,0
19.02.2017 01:00:00 7,3 4,8 5,5 12,2 11,0 7 4 11 6 E 1023,8 2,4 0 0,0
19.02.2017 00:00:00 7,7 5,5 5,7 12,4 11,0 4 2 5 3 NE 1023,5 20 0 0,0
18.02.2017 23:00:00 8,9 7,2 - - - 4 2 5 3 ENE 1023,2 18 - 0,0
18.02.2017 22:00:00 9,2 7,1 6,8 13,0 11,0 2 1 5 3 NNE 1022,9 20 0 0,0
18.02.2017 21:00:00 8,8 7,4 7,2 13,2 11,0 4 2 5 3 SE 1022,3 11 0 0,0
18.02.2017 20:00:00 9,0 7,3 8,1 13,3 11,0 4 2 8 4 ESE 1021,8 7 0 0,0
18.02.2017 19:00:00 10,6 8,2 9,3 13,4 11,0 6 4 9 5 NNW 1021,5 4,8 0 0,0
18.02.2017 18:00:00 12,0 8,7 11,7 13,2 11,0 4 2 9 5 NW 1021,0 9 48 0,0
18.02.2017 17:00:00 12,8 8,1 14,1 12,8 11,0 8 4 9 5 W 1020,8 10 60 0,0
18.02.2017 16:00:00 13,7 7,5 18,9 12,3 11,0 7 4 11 6 W 1020,7 11 60 0,0
18.02.2017 15:00:00 15,7 7,7 20,2 11,6 11,0 5 3 11 6 W 1020,8 12 60 0,0
18.02.2017 14:00:00 13,8 7,8 19,9 11,0 10,9 9 5 16 9 W 1021,4 16 60 0,0
18.02.2017 13:00:00 17,0 7,3 20,4 10,5 11,0 5 3 9 5 NW 1021,8 20 60 0,0
18.02.2017 12:00:00 13,1 8,2 17,0 10,2 10,9 5 3 13 7 NW 1022,5 11 60 0,0
18.02.2017 11:00:00 12,4 6,9 13,1 10,2 10,9 5 3 9 5 WNW 1022,5 19 60 0,0
18.02.2017 10:00:00 10,0 5,8 9,1 10,4 10,9 4 2 13 7 ESE 1022,3 19 60 0,0
18.02.2017 09:00:00 8,1 5,2 6,8 10,5 10,9 9 5 14 8 E 1022,1 19 38 0,0
18.02.2017 08:00:00 7,9 5,0 6,8 10,7 10,9 4 2 16 8 SE 1021,9 20 0 0,0
18.02.2017 07:00:00 8,0 5,5 6,7 10,9 10,9 11 6 19 10 ESE 1022,0 20 0 0,0
18.02.2017 06:00:00 7,9 6,2 6,9 11,1 10,9 12 6 19 11 E 1022,2 14 0 0,0
18.02.2017 05:00:00 8,2 6,5 7,2 11,4 10,8 12 7 17 9 E 1022,5 12 0 0,2
18.02.2017 04:00:00 8,3 6,4 7,1 11,6 10,8 11 6 19 10 E 1023,1 16 0 0,0
18.02.2017 03:00:00 8,3 6,3 6,9 11,8 10,8 13 7 19 10 E 1023,6 20 0 0,0
18.02.2017 02:00:00 9,0 6,6 7,5 12,1 10,8 13 7 19 10 E 1024,0 20 0 0,0
18.02.2017 01:00:00 9,2 6,6 7,5 12,4 10,8 9 5 16 9 E 1024,7 20 0 0,0
18.02.2017 00:00:00 9,5 7,1 7,9 12,6 10,8 12 6 18 10 E 1024,9 20 0 0,0
17.02.2017 23:00:00 9,8 7,4 8,1 12,9 10,8 11 6 15 8 E 1025,2 20 0 0,0
17.02.2017 22:00:00 10,5 7,6 8,4 13,2 10,8 10 6 13 7 E 1025,4 20 0 0,0
17.02.2017 21:00:00 11,8 7,5 9,9 13,4 10,8 6 3 13 7 NE 1025,4 20 0 0,0
17.02.2017 20:00:00 11,2 6,9 9,6 13,5 10,8 9 5 12 7 ENE 1025,6 20 0 0,0
17.02.2017 19:00:00 12,3 7,6 11,3 13,5 10,8 7 4 16 9 NNE 1025,5 20 0 0,0
17.02.2017 18:00:00 14,6 7,9 13,9 13,3 10,8 10 5 18 10 N 1025,2 20 49 0,0
17.02.2017 17:00:00 16,4 7,9 17,7 12,9 10,8 13 7 19 10 N 1025,7 20 60 0,0
17.02.2017 16:00:00 15,7 8,9 21,3 12,4 10,8 7 4 10 6 NNW 1026,0 20 60 0,0
17.02.2017 15:00:00 15,3 8,8 21,1 11,7 10,8 8 4 15 8 NNW 1026,6 19 60 0,0
17.02.2017 14:00:00 15,3 8,8 21,5 11,0 10,8 9 5 13 7 NNW 1027,3 18 60 0,0
17.02.2017 13:00:00 15,0 9,1 21,2 10,5 10,7 8 4 10 5 NW 1028,2 19 60 0,0
17.02.2017 12:00:00 16,3 8,3 18,7 10,2 10,7 7 4 9 5 NW 1028,7 20 60 0,0
17.02.2017 11:00:00 13,8 8,6 13,7 10,2 10,7 4 2 8 5 SE 1028,8 20 60 0,0
17.02.2017 10:00:00 10,3 7,0 9,7 10,3 10,7 - - 11 6 - 1028,7 20 60 0,0
17.02.2017 09:00:00 7,7 6,0 6,2 10,4 10,7 5 3 16 9 E 1028,6 17 36 0,0
17.02.2017 08:00:00 6,8 5,7 6,0 10,6 10,6 11 6 17 9 E 1028,5 10 0 0,0
17.02.2017 07:00:00 7,3 5,9 6,5 10,9 10,6 11 6 15 8 E 1028,3 11 0 0,0
17.02.2017 06:00:00 7,8 6,4 6,4 11,1 10,6 9 5 13 7 ESE 1028,5 13 0 0,0
17.02.2017 05:00:00 7,2 6,0 6,2 11,3 10,6 9 5 12 6 E 1028,8 14 0 0,0
17.02.2017 04:00:00 8,2 6,3 6,4 11,5 10,6 3 1 9 5 NE 1028,9 20 0 0,0
17.02.2017 03:00:00 8,6 6,7 6,9 11,8 10,6 5 3 7 4 E 1029,4 20 0 0,0
17.02.2017 02:00:00 9,9 7,3 8,2 12,0 10,6 6 3 16 9 E 1029,6 20 0 0,0
17.02.2017 01:00:00 10,1 6,8 8,4 12,3 10,5 11 6 16 9 E 1029,9 20 0 0,0

tt = Température de l'air
td = dewpoint
tt 5cm = Température de l'air 5cm
tt -20cm = Température de l'air -20cm
tt -100cm = Température de l'air -100cm
ff = Vitesse du vent
fx = gusts
dd = Direction du vent
ppp = reduced air pressure
vv = visibility
sd = Ensoleillement
rr = Quantités de précipitations

stations d'obs. à proximité